Starlink 1443

operational
NORAD ID: 45660 Int'l Des: 2020-035 Owner: SPXS Country: US Constellation: starlink
LEOCIRCULARSTARLINK_TYPE

About Starlink 1443

Description loading...

Live Position

Loading 3D Globe...

Upcoming Passes

Altitude History

Altitude vs Time

uPlot chart will show altitude changes over time

Two-Line Element Set

1 45660U 20035D 26036.64464483 .00000188 00000-0 31508-4 0 9995
2 45660 53.0555 210.4735 0001117 82.7519 277.3597 15.06397403313904
Epoch: Feb 5, 2026 • Age: 9 hours

Current Status

Altitude 552.7 km
Velocity 7.59 km/s
Sub-Earth Point -18.58°S, 97.76°W
Launch Date Jun 4, 2020
Age 5.6 years
Type internet

Technical Details

Classification Payload
Mass 260.00 kg
Dry Mass 248.00 kg
Total Mass 260.00 kg
Length 0.20 m
Diameter 2.80 m
Span 9.00 m
Shape Box + pan
Manufacturer SPXS
Bus Type Starlink
Phase Status In Orbit
Owner/State SPXS/US

Large Constellations

Loading constellations...